Location: Boullarre
(49.1305°N, 3.0047°E)
Time: 10:15:58
(UTC+00:00)

Cosmos 1844 Rocket - Visible Passes

Search period start: 28 September 2023 00:00
Search period end: 08 October 2023 00:00
Orbit: 825 x 843 km, 71.0° (Epoch: 27 September)

Date Brightness Start Highest point End Pass type
(mag) Time Alt. Az. Time Alt. Az. Time Alt. Az.
28 Sep 5.6 19:15:19 10° WNW 19:17:49 13° W 19:20:21 10° WSW visible
29 Sep 5.6 18:57:37 10° WNW 19:00:34 15° W 19:03:30 10° SW visible
30 Sep 5.6 18:40:01 10° WNW 18:43:18 16° W 18:46:35 10° SW visible
01 Oct 5.6 18:22:27 10° WNW 18:26:02 18° W 18:29:37 10° SW visible
02 Oct 5.5 18:04:55 10° NW 18:08:46 19° W 18:12:36 10° SW visible
03 Oct 5.5 17:47:25 10° NW 17:51:30 21° W 17:55:33 10° SSW visible
04 Oct 6.4 05:18:43 10° E 05:19:09 10° E 05:19:35 10° E visible
